owner,sensor,date,latitude,longitude,vertical_datum,sea_water_practical_salinity,qcFlag 
DISL,ioos:station:DISL:MHPA:1,2016-07-01T00:00:00Z,30.6671,-87.9365,0.968,0.42,1111122 
DISL,ioos:station:DISL:MHPA:1,2016-07-01T00:30:00Z,30.6671,-87.9365,0.955,0.42,1111122 
DISL,ioos:station:DISL:MHPA:1,2016-07-01T01:00:00Z,30.6671,-87.9365,0.952,0.42,1111122 
DISL,ioos:station:DISL:MHPA:1,2016-07-01T01:30:00Z,30.6671,-87.9365,0.957,0.42,1111122 
DISL,ioos:station:DISL:MHPA:1,2016-07-01T02:00:00Z,30.6671,-87.9365,0.967,0.42,1111122 
DISL,ioos:station:DISL:MHPA:1,2016-07-01T02:30:00Z,30.6671,-87.9365,0.98,0.42,1111122 
DISL,ioos:station:DISL:MHPA:1,2016-07-01T03:00:00Z,30.6671,-87.9365,0.997,0.42,1111122 
DISL,ioos:station:DISL:MHPA:1,2016-07-01T03:30:00Z,30.6671,-87.9365,1.022,0.42,1111122 
DISL,ioos:station:DISL:MHPA:1,2016-07-01T04:00:00Z,30.6671,-87.9365,1.052,0.42,1111122 
DISL,ioos:station:DISL:MHPA:1,2016-07-01T04:30:00Z,30.6671,-87.9365,1.069,0.42,1111122 
DISL,ioos:station:DISL:MHPA:1,2016-07-01T05:00:00Z,30.6671,-87.9365,1.093,0.42,1111122 
DISL,ioos:station:DISL:MHPA:1,2016-07-01T05:30:00Z,30.6671,-87.9365,1.129,0.42,1111122 
DISL,ioos:station:DISL:MHPA:1,2016-07-01T06:00:00Z,30.6671,-87.9365,1.157,0.42,1111122 
DISL,ioos:station:DISL:MHPA:1,2016-07-01T06:30:00Z,30.6671,-87.9365,1.18,0.42,1111122 
DISL,ioos:station:DISL:MHPA:1,2016-07-01T07:00:00Z,30.6671,-87.9365,1.208,0.42,1111122 
DISL,ioos:station:DISL:MHPA:1,2016-07-01T07:30:00Z,30.6671,-87.9365,1.242,0.42,1111122 
DISL,ioos:station:DISL:MHPA:1,2016-07-01T08:00:00Z,30.6671,-87.9365,1.264,0.42,1111122 
DISL,ioos:station:DISL:MHPA:1,2016-07-01T08:30:00Z,30.6671,-87.9365,1.293,0.42,1111122 
DISL,ioos:station:DISL:MHPA:1,2016-07-01T09:00:00Z,30.6671,-87.9365,1.304,0.42,1111122 
DISL,ioos:station:DISL:MHPA:1,2016-07-01T09:30:00Z,30.6671,-87.9365,1.302,0.42,1111122 
DISL,ioos:station:DISL:MHPA:1,2016-07-01T10:00:00Z,30.6671,-87.9365,1.329,0.42,1111122 
DISL,ioos:station:DISL:MHPA:1,2016-07-01T10:30:00Z,30.6671,-87.9365,1.367,0.42,1111122 
DISL,ioos:station:DISL:MHPA:1,2016-07-01T11:00:00Z,30.6671,-87.9365,1.383,0.42,1111122 
DISL,ioos:station:DISL:MHPA:1,2016-07-01T11:30:00Z,30.6671,-87.9365,1.4,0.42,1111122 
DISL,ioos:station:DISL:MHPA:1,2016-07-01T12:00:00Z,30.6671,-87.9365,1.436,0.42,1111122 
DISL,ioos:station:DISL:MHPA:1,2016-07-01T12:30:00Z,30.6671,-87.9365,1.438,0.42,1111122 
DISL,ioos:station:DISL:MHPA:1,2016-07-01T13:00:00Z,30.6671,-87.9365,1.446,0.42,1111122 
DISL,ioos:station:DISL:MHPA:1,2016-07-01T13:30:00Z,30.6671,-87.9365,1.471,0.42,1111122 
DISL,ioos:station:DISL:MHPA:1,2016-07-01T14:00:00Z,30.6671,-87.9365,1.452,0.42,1111122 
DISL,ioos:station:DISL:MHPA:1,2016-07-01T14:30:00Z,30.6671,-87.9365,1.428,0.42,1111122 
DISL,ioos:station:DISL:MHPA:1,2016-07-01T15:00:00Z,30.6671,-87.9365,1.419,0.42,1111122 
DISL,ioos:station:DISL:MHPA:1,2016-07-01T15:30:00Z,30.6671,-87.9365,1.396,0.42,1111122 
DISL,ioos:station:DISL:MHPA:1,2016-07-01T16:00:00Z,30.6671,-87.9365,1.375,0.42,1111122 
DISL,ioos:station:DISL:MHPA:1,2016-07-01T16:30:00Z,30.6671,-87.9365,1.354,0.42,1111122 
DISL,ioos:station:DISL:MHPA:1,2016-07-01T17:00:00Z,30.6671,-87.9365,1.325,0.42,1111122 
DISL,ioos:station:DISL:MHPA:1,2016-07-01T17:30:00Z,30.6671,-87.9365,1.291,0.48,1111122 
DISL,ioos:station:DISL:MHPA:1,2016-07-01T18:00:00Z,30.6671,-87.9365,1.258,0.45,1111122 
DISL,ioos:station:DISL:MHPA:1,2016-07-01T18:30:00Z,30.6671,-87.9365,1.229,0.46,1111122 
DISL,ioos:station:DISL:MHPA:1,2016-07-01T19:00:00Z,30.6671,-87.9365,1.183,0.45,1111122 
DISL,ioos:station:DISL:MHPA:1,2016-07-01T19:30:00Z,30.6671,-87.9365,1.134,0.48,1111122 
DISL,ioos:station:DISL:MHPA:1,2016-07-01T20:00:00Z,30.6671,-87.9365,1.093,0.48,1111122 
DISL,ioos:station:DISL:MHPA:1,2016-07-01T20:30:00Z,30.6671,-87.9365,1.05,0.51,1111122 
DISL,ioos:station:DISL:MHPA:1,2016-07-01T21:00:00Z,30.6671,-87.9365,1.002,0.49,1111122 
DISL,ioos:station:DISL:MHPA:1,2016-07-01T21:30:00Z,30.6671,-87.9365,0.957,0.47,1111122 
DISL,ioos:station:DISL:MHPA:1,2016-07-01T22:00:00Z,30.6671,-87.9365,0.918,0.47,1111122 
DISL,ioos:station:DISL:MHPA:1,2016-07-01T22:30:00Z,30.6671,-87.9365,0.888,0.46,1111122 
DISL,ioos:station:DISL:MHPA:1,2016-07-01T23:00:00Z,30.6671,-87.9365,0.863,0.47,1111122 
DISL,ioos:station:DISL:MHPA:1,2016-07-01T23:30:00Z,30.6671,-87.9365,0.841,0.46,1111122 
DISL,ioos:station:DISL:MHPA:1,2016-07-02T00:00:00Z,30.6671,-87.9365,0.823,0.47,1111122 
DISL,ioos:station:DISL:MHPA:1,2016-07-02T00:30:00Z,30.6671,-87.9365,0.811,0.47,1111122 
DISL,ioos:station:DISL:MHPA:1,2016-07-02T01:00:00Z,30.6671,-87.9365,0.806,0.46,1111122 
DISL,ioos:station:DISL:MHPA:1,2016-07-02T01:30:00Z,30.6671,-87.9365,0.804,0.47,1111122 
DISL,ioos:station:DISL:MHPA:1,2016-07-02T02:00:00Z,30.6671,-87.9365,0.799,0.5,1111122 
DISL,ioos:station:DISL:MHPA:1,2016-07-02T02:30:00Z,30.6671,-87.9365,0.804,0.49,1111122 
DISL,ioos:station:DISL:MHPA:1,2016-07-02T03:00:00Z,30.6671,-87.9365,0.807,0.52,1111122 
DISL,ioos:station:DISL:MHPA:1,2016-07-02T03:30:00Z,30.6671,-87.9365,0.811,0.5,1111122 
DISL,ioos:station:DISL:MHPA:1,2016-07-02T04:00:00Z,30.6671,-87.9365,0.834,0.49,1111122 
DISL,ioos:station:DISL:MHPA:1,2016-07-02T04:30:00Z,30.6671,-87.9365,0.867,0.5,1111122 
DISL,ioos:station:DISL:MHPA:1,2016-07-02T05:00:00Z,30.6671,-87.9365,0.905,0.5,1111122 
DISL,ioos:station:DISL:MHPA:1,2016-07-02T05:30:00Z,30.6671,-87.9365,0.948,0.47,1111122 
DISL,ioos:station:DISL:MHPA:1,2016-07-02T06:00:00Z,30.6671,-87.9365,0.994,0.46,1111122 
DISL,ioos:station:DISL:MHPA:1,2016-07-02T06:30:00Z,30.6671,-87.9365,1.038,0.47,1111122 
DISL,ioos:station:DISL:MHPA:1,2016-07-02T07:00:00Z,30.6671,-87.9365,1.072,0.46,1111122 
DISL,ioos:station:DISL:MHPA:1,2016-07-02T07:30:00Z,30.6671,-87.9365,1.109,0.46,1111122 
DISL,ioos:station:DISL:MHPA:1,2016-07-02T08:00:00Z,30.6671,-87.9365,1.132,0.47,1111122 
DISL,ioos:station:DISL:MHPA:1,2016-07-02T08:30:00Z,30.6671,-87.9365,1.158,0.48,1111122 
DISL,ioos:station:DISL:MHPA:1,2016-07-02T09:00:00Z,30.6671,-87.9365,1.188,0.48,1111122 
DISL,ioos:station:DISL:MHPA:1,2016-07-02T09:30:00Z,30.6671,-87.9365,1.212,0.47,1111122 
DISL,ioos:station:DISL:MHPA:1,2016-07-02T10:00:00Z,30.6671,-87.9365,1.24,0.47,1111122 
DISL,ioos:station:DISL:MHPA:1,2016-07-02T10:30:00Z,30.6671,-87.9365,1.259,0.46,1111122 
DISL,ioos:station:DISL:MHPA:1,2016-07-02T11:00:00Z,30.6671,-87.9365,1.288,0.45,1111122 
DISL,ioos:station:DISL:MHPA:1,2016-07-02T11:30:00Z,30.6671,-87.9365,1.322,0.45,1111122 
DISL,ioos:station:DISL:MHPA:1,2016-07-02T12:00:00Z,30.6671,-87.9365,1.35,0.45,1111122 
DISL,ioos:station:DISL:MHPA:1,2016-07-02T12:30:00Z,30.6671,-87.9365,1.371,0.44,1111122 
DISL,ioos:station:DISL:MHPA:1,2016-07-02T13:00:00Z,30.6671,-87.9365,1.39,0.44,1111122 
DISL,ioos:station:DISL:MHPA:1,2016-07-02T13:30:00Z,30.6671,-87.9365,1.404,0.44,1111122 
DISL,ioos:station:DISL:MHPA:1,2016-07-02T14:00:00Z,30.6671,-87.9365,1.413,0.44,1111122 
DISL,ioos:station:DISL:MHPA:1,2016-07-02T14:30:00Z,30.6671,-87.9365,1.435,0.45,1111122 
DISL,ioos:station:DISL:MHPA:1,2016-07-02T15:00:00Z,30.6671,-87.9365,1.442,0.45,1111122 
DISL,ioos:station:DISL:MHPA:1,2016-07-02T15:30:00Z,30.6671,-87.9365,1.442,0.45,1111122 
DISL,ioos:station:DISL:MHPA:1,2016-07-02T16:00:00Z,30.6671,-87.9365,1.438,0.46,1111122 
DISL,ioos:station:DISL:MHPA:1,2016-07-02T16:30:00Z,30.6671,-87.9365,1.437,0.46,1111122 
DISL,ioos:station:DISL:MHPA:1,2016-07-02T17:00:00Z,30.6671,-87.9365,1.419,0.47,1111122 
DISL,ioos:station:DISL:MHPA:1,2016-07-02T17:30:00Z,30.6671,-87.9365,1.385,0.48,1111122 
DISL,ioos:station:DISL:MHPA:1,2016-07-02T18:00:00Z,30.6671,-87.9365,1.354,0.47,1111122 
DISL,ioos:station:DISL:MHPA:1,2016-07-02T18:30:00Z,30.6671,-87.9365,1.321,0.47,1111122 
DISL,ioos:station:DISL:MHPA:1,2016-07-02T19:00:00Z,30.6671,-87.9365,1.289,0.48,1111122 
DISL,ioos:station:DISL:MHPA:1,2016-07-02T19:30:00Z,30.6671,-87.9365,1.259,0.48,1111122 
DISL,ioos:station:DISL:MHPA:1,2016-07-02T20:00:00Z,30.6671,-87.9365,1.237,0.48,1111122 
DISL,ioos:station:DISL:MHPA:1,2016-07-02T20:30:00Z,30.6671,-87.9365,1.208,0.49,1111122 
DISL,ioos:station:DISL:MHPA:1,2016-07-02T21:00:00Z,30.6671,-87.9365,1.18,0.49,1111122 
DISL,ioos:station:DISL:MHPA:1,2016-07-02T21:30:00Z,30.6671,-87.9365,1.149,0.49,1111122 
DISL,ioos:station:DISL:MHPA:1,2016-07-02T22:00:00Z,30.6671,-87.9365,1.119,0.5,1111122 
DISL,ioos:station:DISL:MHPA:1,2016-07-02T22:30:00Z,30.6671,-87.9365,1.079,0.5,1111122 
DISL,ioos:station:DISL:MHPA:1,2016-07-02T23:00:00Z,30.6671,-87.9365,1.045,0.51,1111122 
DISL,ioos:station:DISL:MHPA:1,2016-07-02T23:30:00Z,30.6671,-87.9365,1.015,0.51,1111122 
DISL,ioos:station:DISL:MHPA:1,2016-07-03T00:00:00Z,30.6671,-87.9365,0.984,0.51,1111122 
DISL,ioos:station:DISL:MHPA:1,2016-07-03T00:30:00Z,30.6671,-87.9365,0.951,0.5,1111122 
DISL,ioos:station:DISL:MHPA:1,2016-07-03T01:00:00Z,30.6671,-87.9365,0.92,0.5,1111122 
DISL,ioos:station:DISL:MHPA:1,2016-07-03T01:30:00Z,30.6671,-87.9365,0.896,0.53,1111122 
DISL,ioos:station:DISL:MHPA:1,2016-07-03T02:00:00Z,30.6671,-87.9365,0.875,0.52,1111122 
DISL,ioos:station:DISL:MHPA:1,2016-07-03T02:30:00Z,30.6671,-87.9365,0.855,0.5,1111122 
DISL,ioos:station:DISL:MHPA:1,2016-07-03T03:00:00Z,30.6671,-87.9365,0.844,0.5,1111122 
DISL,ioos:station:DISL:MHPA:1,2016-07-03T03:30:00Z,30.6671,-87.9365,0.84,0.49,1111122 
DISL,ioos:station:DISL:MHPA:1,2016-07-03T04:00:00Z,30.6671,-87.9365,0.837,0.5,1111122 
DISL,ioos:station:DISL:MHPA:1,2016-07-03T04:30:00Z,30.6671,-87.9365,0.843,0.5,1111122 
DISL,ioos:station:DISL:MHPA:1,2016-07-03T05:00:00Z,30.6671,-87.9365,0.86,0.49,1111122 
DISL,ioos:station:DISL:MHPA:1,2016-07-03T05:30:00Z,30.6671,-87.9365,0.886,0.5,1111122 
DISL,ioos:station:DISL:MHPA:1,2016-07-03T06:00:00Z,30.6671,-87.9365,0.913,0.5,1111122 
DISL,ioos:station:DISL:MHPA:1,2016-07-03T06:30:00Z,30.6671,-87.9365,0.94,0.51,1111122 
DISL,ioos:station:DISL:MHPA:1,2016-07-03T07:00:00Z,30.6671,-87.9365,0.981,0.51,1111122 
DISL,ioos:station:DISL:MHPA:1,2016-07-03T07:30:00Z,30.6671,-87.9365,1.027,0.6,1111122 
DISL,ioos:station:DISL:MHPA:1,2016-07-03T08:00:00Z,30.6671,-87.9365,1.074,0.59,1111122 
DISL,ioos:station:DISL:MHPA:1,2016-07-03T08:30:00Z,30.6671,-87.9365,1.112,0.57,1111122 
DISL,ioos:station:DISL:MHPA:1,2016-07-03T09:00:00Z,30.6671,-87.9365,1.145,0.54,1111122 
DISL,ioos:station:DISL:MHPA:1,2016-07-03T09:30:00Z,30.6671,-87.9365,1.178,0.52,1111122 
DISL,ioos:station:DISL:MHPA:1,2016-07-03T10:00:00Z,30.6671,-87.9365,1.204,0.52,1111122 
DISL,ioos:station:DISL:MHPA:1,2016-07-03T10:30:00Z,30.6671,-87.9365,1.226,0.51,1111122 
DISL,ioos:station:DISL:MHPA:1,2016-07-03T11:00:00Z,30.6671,-87.9365,1.248,0.48,1111122 
DISL,ioos:station:DISL:MHPA:1,2016-07-03T11:30:00Z,30.6671,-87.9365,1.268,0.52,1111122 
DISL,ioos:station:DISL:MHPA:1,2016-07-03T12:00:00Z,30.6671,-87.9365,1.289,0.52,1111122 
DISL,ioos:station:DISL:MHPA:1,2016-07-03T12:30:00Z,30.6671,-87.9365,1.31,0.57,1111122 
DISL,ioos:station:DISL:MHPA:1,2016-07-03T13:00:00Z,30.6671,-87.9365,1.34,0.55,1111122 
DISL,ioos:station:DISL:MHPA:1,2016-07-03T13:30:00Z,30.6671,-87.9365,1.364,0.54,1111122 
DISL,ioos:station:DISL:MHPA:1,2016-07-03T14:00:00Z,30.6671,-87.9365,1.391,0.55,1111122 
DISL,ioos:station:DISL:MHPA:1,2016-07-03T14:30:00Z,30.6671,-87.9365,1.421,0.54,1111122 
DISL,ioos:station:DISL:MHPA:1,2016-07-03T15:00:00Z,30.6671,-87.9365,1.447,0.57,1111122 
DISL,ioos:station:DISL:MHPA:1,2016-07-03T15:30:00Z,30.6671,-87.9365,1.465,0.56,1111122 
DISL,ioos:station:DISL:MHPA:1,2016-07-03T16:00:00Z,30.6671,-87.9365,1.474,0.57,1111122 
DISL,ioos:station:DISL:MHPA:1,2016-07-03T16:30:00Z,30.6671,-87.9365,1.463,0.56,1111122 
DISL,ioos:station:DISL:MHPA:1,2016-07-03T17:00:00Z,30.6671,-87.9365,1.465,0.56,1111122 
DISL,ioos:station:DISL:MHPA:1,2016-07-03T17:30:00Z,30.6671,-87.9365,1.462,0.55,1111122 
DISL,ioos:station:DISL:MHPA:1,2016-07-03T18:00:00Z,30.6671,-87.9365,1.44,0.54,1111122 
DISL,ioos:station:DISL:MHPA:1,2016-07-03T18:30:00Z,30.6671,-87.9365,1.415,0.54,1111122 
DISL,ioos:station:DISL:MHPA:1,2016-07-03T19:00:00Z,30.6671,-87.9365,1.4,0.55,1111122 
DISL,ioos:station:DISL:MHPA:1,2016-07-03T19:30:00Z,30.6671,-87.9365,1.367,0.54,1111122 
DISL,ioos:station:DISL:MHPA:1,2016-07-03T20:00:00Z,30.6671,-87.9365,1.332,0.54,1111122 
DISL,ioos:station:DISL:MHPA:1,2016-07-03T20:30:00Z,30.6671,-87.9365,1.31,0.55,1111122 
DISL,ioos:station:DISL:MHPA:1,2016-07-03T21:00:00Z,30.6671,-87.9365,1.276,0.56,1111122 
DISL,ioos:station:DISL:MHPA:1,2016-07-03T21:30:00Z,30.6671,-87.9365,1.232,0.56,1111122 
DISL,ioos:station:DISL:MHPA:1,2016-07-03T22:00:00Z,30.6671,-87.9365,1.193,0.56,1111122 
DISL,ioos:station:DISL:MHPA:1,2016-07-03T22:30:00Z,30.6671,-87.9365,1.151,0.56,1111122 
DISL,ioos:station:DISL:MHPA:1,2016-07-03T23:00:00Z,30.6671,-87.9365,1.112,0.55,1111122 
DISL,ioos:station:DISL:MHPA:1,2016-07-03T23:30:00Z,30.6671,-87.9365,1.078,0.55,1111122 
DISL,ioos:station:DISL:MHPA:1,2016-07-04T00:00:00Z,30.6671,-87.9365,1.035,0.56,1111122 
DISL,ioos:station:DISL:MHPA:1,2016-07-04T00:30:00Z,30.6671,-87.9365,0.992,0.54,1111122 
DISL,ioos:station:DISL:MHPA:1,2016-07-04T01:00:00Z,30.6671,-87.9365,0.953,0.53,1111122 
DISL,ioos:station:DISL:MHPA:1,2016-07-04T01:30:00Z,30.6671,-87.9365,0.923,0.53,1111122 
DISL,ioos:station:DISL:MHPA:1,2016-07-04T02:00:00Z,30.6671,-87.9365,0.898,0.53,1111122 
DISL,ioos:station:DISL:MHPA:1,2016-07-04T02:30:00Z,30.6671,-87.9365,0.878,0.53,1111122 
DISL,ioos:station:DISL:MHPA:1,2016-07-04T03:00:00Z,30.6671,-87.9365,0.865,0.53,1111122 
DISL,ioos:station:DISL:MHPA:1,2016-07-04T03:30:00Z,30.6671,-87.9365,0.857,0.53,1111122 
DISL,ioos:station:DISL:MHPA:1,2016-07-04T04:00:00Z,30.6671,-87.9365,0.845,0.53,1111122 
DISL,ioos:station:DISL:MHPA:1,2016-07-04T04:30:00Z,30.6671,-87.9365,0.83,0.54,1111122 
DISL,ioos:station:DISL:MHPA:1,2016-07-04T05:00:00Z,30.6671,-87.9365,0.84,0.54,1111122 
DISL,ioos:station:DISL:MHPA:1,2016-07-04T05:30:00Z,30.6671,-87.9365,0.867,0.53,1111122 
DISL,ioos:station:DISL:MHPA:1,2016-07-04T06:00:00Z,30.6671,-87.9365,0.899,0.53,1111122 
DISL,ioos:station:DISL:MHPA:1,2016-07-04T06:30:00Z,30.6671,-87.9365,0.932,0.54,1111122 
DISL,ioos:station:DISL:MHPA:1,2016-07-04T07:00:00Z,30.6671,-87.9365,0.967,0.53,1111122 
DISL,ioos:station:DISL:MHPA:1,2016-07-04T07:30:00Z,30.6671,-87.9365,1.002,0.54,1111122 
DISL,ioos:station:DISL:MHPA:1,2016-07-04T08:00:00Z,30.6671,-87.9365,1.05,0.54,1111122 
DISL,ioos:station:DISL:MHPA:1,2016-07-04T08:30:00Z,30.6671,-87.9365,1.102,0.54,1111122 
DISL,ioos:station:DISL:MHPA:1,2016-07-04T09:00:00Z,30.6671,-87.9365,1.135,0.54,1111122 
DISL,ioos:station:DISL:MHPA:1,2016-07-04T09:30:00Z,30.6671,-87.9365,1.152,0.53,1111122 
DISL,ioos:station:DISL:MHPA:1,2016-07-04T10:00:00Z,30.6671,-87.9365,1.174,0.53,1111122 
DISL,ioos:station:DISL:MHPA:1,2016-07-04T10:30:00Z,30.6671,-87.9365,1.199,0.54,1111122 
DISL,ioos:station:DISL:MHPA:1,2016-07-04T11:00:00Z,30.6671,-87.9365,1.214,0.54,1111122 
DISL,ioos:station:DISL:MHPA:1,2016-07-04T11:30:00Z,30.6671,-87.9365,1.226,0.53,1111122 
DISL,ioos:station:DISL:MHPA:1,2016-07-04T12:00:00Z,30.6671,-87.9365,1.249,0.53,1111122 
DISL,ioos:station:DISL:MHPA:1,2016-07-04T12:30:00Z,30.6671,-87.9365,1.278,0.54,1111122 
DISL,ioos:station:DISL:MHPA:1,2016-07-04T13:00:00Z,30.6671,-87.9365,1.301,0.54,1111122 
DISL,ioos:station:DISL:MHPA:1,2016-07-04T13:30:00Z,30.6671,-87.9365,1.329,0.55,1111122 
DISL,ioos:station:DISL:MHPA:1,2016-07-04T14:00:00Z,30.6671,-87.9365,1.368,0.55,1111122 
DISL,ioos:station:DISL:MHPA:1,2016-07-04T14:30:00Z,30.6671,-87.9365,1.396,0.55,1111122 
DISL,ioos:station:DISL:MHPA:1,2016-07-04T15:00:00Z,30.6671,-87.9365,1.444,0.54,1111122 
DISL,ioos:station:DISL:MHPA:1,2016-07-04T15:30:00Z,30.6671,-87.9365,1.478,0.54,1111122 
DISL,ioos:station:DISL:MHPA:1,2016-07-04T16:00:00Z,30.6671,-87.9365,1.496,0.54,1111122 
DISL,ioos:station:DISL:MHPA:1,2016-07-04T16:30:00Z,30.6671,-87.9365,1.513,0.54,1111122 
DISL,ioos:station:DISL:MHPA:1,2016-07-04T17:00:00Z,30.6671,-87.9365,1.513,0.54,1111122 
DISL,ioos:station:DISL:MHPA:1,2016-07-04T17:30:00Z,30.6671,-87.9365,1.521,0.54,1111122 
DISL,ioos:station:DISL:MHPA:1,2016-07-04T18:00:00Z,30.6671,-87.9365,1.513,0.54,1111122 
DISL,ioos:station:DISL:MHPA:1,2016-07-04T18:30:00Z,30.6671,-87.9365,1.5,0.55,1111122 
DISL,ioos:station:DISL:MHPA:1,2016-07-04T19:00:00Z,30.6671,-87.9365,1.45,0.55,1111122 
DISL,ioos:station:DISL:MHPA:1,2016-07-04T19:30:00Z,30.6671,-87.9365,1.429,0.55,1111122 
DISL,ioos:station:DISL:MHPA:1,2016-07-04T20:00:00Z,30.6671,-87.9365,1.435,0.55,1111122 
DISL,ioos:station:DISL:MHPA:1,2016-07-04T20:30:00Z,30.6671,-87.9365,1.397,0.55,1111122 
DISL,ioos:station:DISL:MHPA:1,2016-07-04T21:00:00Z,30.6671,-87.9365,1.368,0.55,1111122 
DISL,ioos:station:DISL:MHPA:1,2016-07-04T21:30:00Z,30.6671,-87.9365,1.327,0.55,1111122 
DISL,ioos:station:DISL:MHPA:1,2016-07-04T22:00:00Z,30.6671,-87.9365,1.276,0.55,1111122 
DISL,ioos:station:DISL:MHPA:1,2016-07-04T22:30:00Z,30.6671,-87.9365,1.242,0.55,1111122 
DISL,ioos:station:DISL:MHPA:1,2016-07-04T23:00:00Z,30.6671,-87.9365,1.209,0.55,1111122 
DISL,ioos:station:DISL:MHPA:1,2016-07-04T23:30:00Z,30.6671,-87.9365,1.166,0.55,1111122 
DISL,ioos:station:DISL:MHPA:1,2016-07-05T00:00:00Z,30.6671,-87.9365,1.121,0.54,1111122 
DISL,ioos:station:DISL:MHPA:1,2016-07-05T00:30:00Z,30.6671,-87.9365,1.079,0.54,1111122 
DISL,ioos:station:DISL:MHPA:1,2016-07-05T01:00:00Z,30.6671,-87.9365,1.044,0.54,1111122 
DISL,ioos:station:DISL:MHPA:1,2016-07-05T01:30:00Z,30.6671,-87.9365,1.019,0.54,1111122 
DISL,ioos:station:DISL:MHPA:1,2016-07-05T02:00:00Z,30.6671,-87.9365,0.997,0.54,1111122 
DISL,ioos:station:DISL:MHPA:1,2016-07-05T02:30:00Z,30.6671,-87.9365,0.983,0.54,1111122 
DISL,ioos:station:DISL:MHPA:1,2016-07-05T03:00:00Z,30.6671,-87.9365,0.962,0.54,1111122 
DISL,ioos:station:DISL:MHPA:1,2016-07-05T03:30:00Z,30.6671,-87.9365,0.929,0.54,1111122 
DISL,ioos:station:DISL:MHPA:1,2016-07-05T04:00:00Z,30.6671,-87.9365,0.908,0.55,1111122 
DISL,ioos:station:DISL:MHPA:1,2016-07-05T04:30:00Z,30.6671,-87.9365,0.881,0.55,1111122 
DISL,ioos:station:DISL:MHPA:1,2016-07-05T05:00:00Z,30.6671,-87.9365,0.853,0.55,1111122 
DISL,ioos:station:DISL:MHPA:1,2016-07-05T05:30:00Z,30.6671,-87.9365,0.837,0.54,1111122 
DISL,ioos:station:DISL:MHPA:1,2016-07-05T06:00:00Z,30.6671,-87.9365,0.856,0.55,1111122 
DISL,ioos:station:DISL:MHPA:1,2016-07-05T06:30:00Z,30.6671,-87.9365,0.889,0.54,1111122 
DISL,ioos:station:DISL:MHPA:1,2016-07-05T07:00:00Z,30.6671,-87.9365,0.93,0.54,1111122 
DISL,ioos:station:DISL:MHPA:1,2016-07-05T07:30:00Z,30.6671,-87.9365,0.957,0.54,1111122 
DISL,ioos:station:DISL:MHPA:1,2016-07-05T08:00:00Z,30.6671,-87.9365,0.97,0.54,1111122 
DISL,ioos:station:DISL:MHPA:1,2016-07-05T08:30:00Z,30.6671,-87.9365,1.001,0.54,1111122 
DISL,ioos:station:DISL:MHPA:1,2016-07-05T09:00:00Z,30.6671,-87.9365,1.037,0.54,1111122 
DISL,ioos:station:DISL:MHPA:1,2016-07-05T09:30:00Z,30.6671,-87.9365,1.064,0.54,1111122 
DISL,ioos:station:DISL:MHPA:1,2016-07-05T10:00:00Z,30.6671,-87.9365,1.091,0.55,1111122 
DISL,ioos:station:DISL:MHPA:1,2016-07-05T10:30:00Z,30.6671,-87.9365,1.123,0.55,1111122 
DISL,ioos:station:DISL:MHPA:1,2016-07-05T11:00:00Z,30.6671,-87.9365,1.143,0.55,1111122 
DISL,ioos:station:DISL:MHPA:1,2016-07-05T11:30:00Z,30.6671,-87.9365,1.152,0.55,1111122 
DISL,ioos:station:DISL:MHPA:1,2016-07-05T12:00:00Z,30.6671,-87.9365,1.181,0.55,1111122 
DISL,ioos:station:DISL:MHPA:1,2016-07-05T12:30:00Z,30.6671,-87.9365,1.215,0.55,1111122 
DISL,ioos:station:DISL:MHPA:1,2016-07-05T13:00:00Z,30.6671,-87.9365,1.229,0.55,1111122 
DISL,ioos:station:DISL:MHPA:1,2016-07-05T13:30:00Z,30.6671,-87.9365,1.254,0.55,1111122 
DISL,ioos:station:DISL:MHPA:1,2016-07-05T14:00:00Z,30.6671,-87.9365,1.277,0.55,1111122 
DISL,ioos:station:DISL:MHPA:1,2016-07-05T14:30:00Z,30.6671,-87.9365,1.321,0.55,1111122 
DISL,ioos:station:DISL:MHPA:1,2016-07-05T15:00:00Z,30.6671,-87.9365,1.367,0.55,1111122 
DISL,ioos:station:DISL:MHPA:1,2016-07-05T15:30:00Z,30.6671,-87.9365,1.393,0.55,1111122 
DISL,ioos:station:DISL:MHPA:1,2016-07-05T16:00:00Z,30.6671,-87.9365,1.427,0.55,1111122 
DISL,ioos:station:DISL:MHPA:1,2016-07-05T16:30:00Z,30.6671,-87.9365,1.443,0.55,1111122 
DISL,ioos:station:DISL:MHPA:1,2016-07-05T17:00:00Z,30.6671,-87.9365,1.46,0.55,1111122 
DISL,ioos:station:DISL:MHPA:1,2016-07-05T17:30:00Z,30.6671,-87.9365,1.46,0.55,1111122 
DISL,ioos:station:DISL:MHPA:1,2016-07-05T18:00:00Z,30.6671,-87.9365,1.454,0.55,1111122 
DISL,ioos:station:DISL:MHPA:1,2016-07-05T18:30:00Z,30.6671,-87.9365,1.432,0.55,1111122 
DISL,ioos:station:DISL:MHPA:1,2016-07-05T19:00:00Z,30.6671,-87.9365,1.416,0.55,1111122 
DISL,ioos:station:DISL:MHPA:1,2016-07-05T19:30:00Z,30.6671,-87.9365,1.377,0.55,1111122 
DISL,ioos:station:DISL:MHPA:1,2016-07-05T20:00:00Z,30.6671,-87.9365,1.361,0.55,1111122 
DISL,ioos:station:DISL:MHPA:1,2016-07-05T20:30:00Z,30.6671,-87.9365,1.363,0.55,1111122 
DISL,ioos:station:DISL:MHPA:1,2016-07-05T21:00:00Z,30.6671,-87.9365,1.353,0.55,1111122 
DISL,ioos:station:DISL:MHPA:1,2016-07-05T21:30:00Z,30.6671,-87.9365,1.344,0.55,1111122 
DISL,ioos:station:DISL:MHPA:1,2016-07-05T22:00:00Z,30.6671,-87.9365,1.25,0.55,1111122 
DISL,ioos:station:DISL:MHPA:1,2016-07-05T22:30:00Z,30.6671,-87.9365,1.19,0.56,1111122 
DISL,ioos:station:DISL:MHPA:1,2016-07-05T23:00:00Z,30.6671,-87.9365,1.15,0.55,1111122 
DISL,ioos:station:DISL:MHPA:1,2016-07-05T23:30:00Z,30.6671,-87.9365,1.112,0.56,1111122 
DISL,ioos:station:DISL:MHPA:1,2016-07-06T00:00:00Z,30.6671,-87.9365,1.103,0.55,1111122 
DISL,ioos:station:DISL:MHPA:1,2016-07-06T00:30:00Z,30.6671,-87.9365,1.082,0.55,1111122 
DISL,ioos:station:DISL:MHPA:1,2016-07-06T01:00:00Z,30.6671,-87.9365,1.043,0.55,1111122 
DISL,ioos:station:DISL:MHPA:1,2016-07-06T01:30:00Z,30.6671,-87.9365,1.011,0.55,1111122 
DISL,ioos:station:DISL:MHPA:1,2016-07-06T02:00:00Z,30.6671,-87.9365,0.979,0.55,1111122 
DISL,ioos:station:DISL:MHPA:1,2016-07-06T02:30:00Z,30.6671,-87.9365,0.954,0.55,1111122 
DISL,ioos:station:DISL:MHPA:1,2016-07-06T03:00:00Z,30.6671,-87.9365,0.937,0.55,1111122 
DISL,ioos:station:DISL:MHPA:1,2016-07-06T03:30:00Z,30.6671,-87.9365,0.923,0.55,1111122 
DISL,ioos:station:DISL:MHPA:1,2016-07-06T04:00:00Z,30.6671,-87.9365,0.902,0.55,1111122 
DISL,ioos:station:DISL:MHPA:1,2016-07-06T04:30:00Z,30.6671,-87.9365,0.87,0.55,1111122 
DISL,ioos:station:DISL:MHPA:1,2016-07-06T05:00:00Z,30.6671,-87.9365,0.842,0.56,1111122 
DISL,ioos:station:DISL:MHPA:1,2016-07-06T05:30:00Z,30.6671,-87.9365,0.825,0.56,1111122 
DISL,ioos:station:DISL:MHPA:1,2016-07-06T06:00:00Z,30.6671,-87.9365,0.812,0.56,1111122 
DISL,ioos:station:DISL:MHPA:1,2016-07-06T06:30:00Z,30.6671,-87.9365,0.815,0.56,1111122 
DISL,ioos:station:DISL:MHPA:1,2016-07-06T07:00:00Z,30.6671,-87.9365,0.83,0.56,1111122 
DISL,ioos:station:DISL:MHPA:1,2016-07-06T07:30:00Z,30.6671,-87.9365,0.85,0.56,1111122 
DISL,ioos:station:DISL:MHPA:1,2016-07-06T08:00:00Z,30.6671,-87.9365,0.887,0.56,1111122 
DISL,ioos:station:DISL:MHPA:1,2016-07-06T08:30:00Z,30.6671,-87.9365,0.929,0.56,1111122 
DISL,ioos:station:DISL:MHPA:1,2016-07-06T09:00:00Z,30.6671,-87.9365,0.965,0.56,1111122 
DISL,ioos:station:DISL:MHPA:1,2016-07-06T09:30:00Z,30.6671,-87.9365,0.991,0.56,1111122 
DISL,ioos:station:DISL:MHPA:1,2016-07-06T10:00:00Z,30.6671,-87.9365,1.017,0.56,1111122 
DISL,ioos:station:DISL:MHPA:1,2016-07-06T10:30:00Z,30.6671,-87.9365,1.038,0.57,1111122 
DISL,ioos:station:DISL:MHPA:1,2016-07-06T11:00:00Z,30.6671,-87.9365,1.06,0.57,1111122 
DISL,ioos:station:DISL:MHPA:1,2016-07-06T11:30:00Z,30.6671,-87.9365,1.089,0.57,1111122 
DISL,ioos:station:DISL:MHPA:1,2016-07-06T12:00:00Z,30.6671,-87.9365,1.117,0.57,1111122 
DISL,ioos:station:DISL:MHPA:1,2016-07-06T12:30:00Z,30.6671,-87.9365,1.14,0.57,1111122 
DISL,ioos:station:DISL:MHPA:1,2016-07-06T13:00:00Z,30.6671,-87.9365,1.148,0.57,1111122 
DISL,ioos:station:DISL:MHPA:1,2016-07-06T13:30:00Z,30.6671,-87.9365,1.164,0.57,1111122 
DISL,ioos:station:DISL:MHPA:1,2016-07-06T14:00:00Z,30.6671,-87.9365,1.187,0.57,1111122 
DISL,ioos:station:DISL:MHPA:1,2016-07-06T14:30:00Z,30.6671,-87.9365,1.217,0.57,1111122 
DISL,ioos:station:DISL:MHPA:1,2016-07-06T15:00:00Z,30.6671,-87.9365,1.272,0.57,1111122 
DISL,ioos:station:DISL:MHPA:1,2016-07-06T15:30:00Z,30.6671,-87.9365,1.267,0.57,1111122 